Regional Weather Roundup
Issued by NWS

Home | Current Version | Previous Version | Text Only | Print | Product List | Glossary Off
Versions: 1 2 3 4 5 6 7 8 9 10 11 12 13 14 15 16 17 18 19 20 21 22 23 24 25 26 27 28 29 30 31 32 33 34 35 36 37 38 39 40 41 42 43 44 45 46 47 48 49 50

600
ASUS43 KFSD 020510
RWRSD

WEATHER ROUNDUP FOR SOUTH DAKOTA
NATIONAL WEATHER SERVICE SIOUX FALLS SD
1200 AM CDT MON MAY 02 2016

NOTE: "FAIR" INDICATES FEW OR NO CLOUDS BELOW 12,000 FEET WITH NO
SIGNIFICANT WEATHER AND/OR OBSTRUCTIONS TO VISIBILITY.


SDZ001>005-009-010-012>017-020600-
NORTHWEST AND NORTH CENTRAL SOUTH DAKOTA

CITY           SKY/WX    TMP DP  RH WIND       PRES   REMARKS
BUFFALO          N/A     44  31  60 W6        30.13F
FAITH            N/A     42  31  64 S9        30.19F
MOBRIDGE       CLEAR     41  33  73 CALM      30.14F
$$

SDZ012>016-024>037-041>051-057-063-072>074-020600-
SOUTHWEST AND SOUTH CENTRAL SOUTH DAKOTA

CITY           SKY/WX    TMP DP  RH WIND       PRES   REMARKS
RAPID CTY ARPT CLEAR     39  30  70 W5        30.24S
PIERRE         CLEAR     47  34  60 S3        30.19S
CUSTER         CLEAR     32  25  75 W3        30.26S
ELLSWORTH AFB  CLEAR     41  31  67 SW5       30.23S
PHILIP         CLEAR     38  33  82 W5        30.22S
PINE RIDGE     CLEAR     36  30  79 CALM      30.25R
WINNER         FAIR      40  33  76 SW7       30.22S
$$

SDZ004>011-016>023-039-040-020600-
NORTHEAST SOUTH DAKOTA

CITY           SKY/WX    TMP DP  RH WIND       PRES   REMARKS
ABERDEEN       CLEAR     42  34  73 W6        30.16S
WATERTOWN      CLEAR     42  31  64 CALM      30.15S
BROOKINGS      CLEAR     44  33  65 SE5       30.15S
SISSETON         N/A     42  32  67 CALM      30.13S
$$

SDZ017-020-022-023-036>040-048>070-020600-
SOUTHEAST SOUTH DAKOTA

CITY           SKY/WX    TMP DP  RH WIND       PRES   REMARKS
SIOUX FALLS    CLEAR     40  36  86 CALM      30.17S
HURON          CLEAR     45  37  73 CALM      30.17S
CHAMBERLAIN    CLEAR     44  38  80 W5        30.20S
MITCHELL       CLEAR     46  39  76 W5        30.19R
YANKTON        CLEAR     43  36  75 W3        30.18S
$$

ABBREVIATIONS USED IN REMARKS
   TC - TEMPERATURE IN CELSIUS
  WCI - WIND CHILL INDEX
   HX - HEAT INDEX
  VSB - VISIBILITY





USA.gov is the U.S. government's official web portal to all federal, state and local government web resources and services.